Greenville, ME

3:26 PM EDT on April 25, 2017 (GMT -0400)
Greenville

Weather History for KGNR - February, 2013

Change the Weather History Date:

Sunday, February 10, 2013

  Actual Average (KMLT) Record (KMLT)
Temperature  
Mean Temperature 14 °F -  
Max Temperature 24 °F 25 °F 44 °F (1990)
Min Temperature 3 °F 0 °F -22 °F (1975)
Degree Days  
Heating Degree Days 52    
Moisture  
Dew Point -1 °F    
Average Humidity 54    
Maximum Humidity 73    
Minimum Humidity 32    
Precipitation  
Precipitation 0.00 in - - ()
Sea Level Pressure  
Sea Level Pressure 30.26 in    
Wind  
Wind Speed 14 mph (NNW)    
Max Wind Speed 23 mph    
Max Gust Speed 33 mph    
Averages and records for this station are not official NWS values.
T = Trace of Precipitation, MM = Missing Value Source: NWS Daily Summary

Daily Weather History Graph

Daily Weather History Graph

Search for Another Location

Airport or City:

Trip Planner

Search our weather history database for the weather conditions in past years. The results will help you decide how hot, cold, wet, or windy it might be!

Date:

Astronomy

Feb. 10, 2013 Rise Set
Actual Time 6:47 AM EST 4:58 PM EST
Civil Twilight 6:16 AM EST 5:29 PM EST
Nautical Twilight 5:41 AM EST 6:04 PM EST
Astronomical Twilight 5:07 AM EST 6:38 PM EST
Moon 6:31 AM EST (2/10) 5:50 PM EST (2/10)
Length of Visible Light 11h 13m
Length of Day
10h 11m
New Moon, 0% of the Moon is Illuminated
Feb 10
New Moon
Feb 17
First Quarter
Feb 25
Full
Mar 4
Last Quarter
Mar 11
New

Hourly Weather History & Observations

Time (EST) Temp. Windchill Dew Point Humidity Pressure Visibility Wind Dir Wind Speed Gust Speed Precip Events Conditions
12:56 AM 8.1 °F -11.2 °F -0.0 °F 70% 30.13 in - NNW 19.6 mph 28.8 mph N/A   Unknown
1:56 AM 7.0 °F -14.0 °F -0.9 °F 70% 30.14 in - NNW 23.0 mph 33.4 mph N/A   Unknown
2:56 AM 7.0 °F -13.1 °F -2.0 °F 67% 30.16 in - NNW 20.7 mph 33.4 mph N/A   Unknown
3:56 AM 6.1 °F -13.8 °F -4.0 °F 63% 30.17 in - NNW 19.6 mph 31.1 mph N/A   Unknown
4:56 AM 3.9 °F -15.0 °F -2.9 °F 73% 30.20 in - NNW 16.1 mph 20.7 mph N/A   Unknown
5:56 AM 3.9 °F -13.0 °F -2.9 °F 73% 30.22 in - NW 12.7 mph 21.9 mph N/A   Unknown
6:56 AM 3.9 °F -11.3 °F -5.1 °F 66% 30.25 in - NNW 10.4 mph - N/A   Unknown
7:56 AM 6.1 °F -10.9 °F -5.1 °F 60% 30.27 in - NNW 13.8 mph 23.0 mph N/A   Unknown
8:56 AM 9.0 °F -7.9 °F -4.0 °F 56% 30.28 in - NNW 15.0 mph 24.2 mph N/A   Unknown
9:56 AM 12.0 °F -2.7 °F -4.0 °F 49% 30.30 in - NNW 12.7 mph 23.0 mph N/A   Unknown
10:56 AM 15.1 °F 0.5 °F -2.0 °F 47% 30.31 in - NNW 13.8 mph 24.2 mph N/A   Unknown
11:56 AM 18.0 °F 4.2 °F -0.9 °F 44% 30.28 in - NNW 13.8 mph 24.2 mph N/A   Unknown
12:56 PM 19.9 °F 7.9 °F 1.0 °F 44% 30.28 in - NNW 11.5 mph - N/A   Unknown
1:56 PM 21.9 °F 11.7 °F -0.0 °F 38% 30.28 in - NW 9.2 mph 20.7 mph N/A   Unknown
2:56 PM 24.1 °F 13.7 °F -2.0 °F 32% 30.27 in - NNW 10.4 mph - N/A   Unknown
3:56 PM 23.0 °F 14.7 °F -0.0 °F 37% 30.28 in - NNW 6.9 mph - N/A   Unknown
4:56 PM 19.9 °F 13.4 °F 1.0 °F 44% 30.31 in - NW 4.6 mph - N/A   Unknown
5:56 PM 18.0 °F - 1.9 °F 50% 30.32 in - Calm Calm - N/A   Unknown
6:56 PM 17.1 °F 7.6 °F 1.0 °F 50% 30.34 in - NNW 6.9 mph - N/A   Unknown
7:56 PM 16.0 °F 7.4 °F 1.0 °F 52% 30.34 in - NNW 5.8 mph - N/A   Unknown
8:56 PM 15.1 °F 5.2 °F -0.0 °F 51% 30.31 in - North 6.9 mph - N/A   Unknown
9:56 PM 16.0 °F 10.4 °F -0.9 °F 47% 30.29 in - Variable 3.5 mph - N/A   Unknown
10:56 PM 10.9 °F - -0.0 °F 61% 30.28 in - Calm Calm - N/A   Unknown
11:56 PM 12.0 °F - 1.0 °F 61% 30.29 in - Calm Calm - N/A   Unknown